NOAA 17 DEB, 49481

Orbit data source: Space-Track

NOAA 17 DEB, 49481 is space debris in SSO originally from a launch on Mon, 24 Jun 2002 UTC launched from the Air Force Western Test Range (AFWTR). Debris objects in space refer to the collection of defunct objects orbiting the Earth. Examples of debris include non-operational satellites, rocket bodies, and fragments generated from explosions, collisions, or faulty payload assembly.

Loading next visibility...
Identifier
49481, 2002-032DK
Orbit
SSO
Country
Flag of USUS
Related business
Manufacturer
Unknown
Mission
Spacecraft
Bus & Motor
Unknown
Mass
Unknown
Launch date (UTC)
2002-06-24 (23 years ago)
Launch vehicle
Unknown
Launch site
Air Force Western Test Range (AFWTR)
Object type
Payload
Rocket body
Debris
Shape & HBR
Unknown shape, 0.1 m
Radar Cross Section
Small (<0.1 m²)

Expand to show TLE details & history
Last TLE update: 2 days ago

TLE from 2 days ago
0 NOAA 17 DEB
1 49481U 02032DK  25348.43573544  .00104396  00000-0  85443-2 0  9999
2 49481  98.6907 344.8786 0013481  73.8941 286.3762 14.98724579237626
Epoch: 2025-12-14T10:27Z
TLE epoch observation values (Epoch: 2025-12-14T10:27:27.542Z)
Latitude
0.00003°
Longitude
104.66515°
Altitude
571.228 km
Speed
7.577 km/s
True Right ascension
22h 59m 30s
True Declination
0° 00' 00"
Sunlit
Object was in daylight at epoch
Visualization orbit readout
Latitude
Unknown
Longitude
Unknown
Altitude
Unknown
Speed
Unknown
Apparent Right ascension
Unknown
Apparent Declination
Unknown
Sunlit
N/A
Visualization observer readout
Local Sidereal Time
08:21:37
Azimuth
Unknown
Elevation
Unknown
Doppler factor
Unknown
Orbital elements
Apogee altitude
577.253 km
Perigee altitude
558.525 km
Semi-major axis
6,946.026 km
Eccentricity
0.00135
Inclination
98.6907°
RAAN
344.8786°
Arg. of periapsis
73.8941°
True anomaly
286.22792°
Mean anomaly
286.3762°
Eccentric anomaly
286.30206°
Mean motion
3.7492 °/min
Orbital period
96.02 mins
BSTAR
0.0085443
Loading maneuver chart data...
Computing Atmospheric mass density...
Loading historical data...
Loading historical data...
Loading historical data...
Loading historical data...
Loading historical data...
Loading historical data...
Loading historical data...

Documentation

Showing up to 5 results
|